Location: Veytaux
(46.4185°N, 6.9320°E)
Time: 07:30:57
(UTC+00:00)

MOZ.5/SAFIR/RUBIN 5/SL-8 - Pass Details

Date: 27 May 2022
Orbit: 677 x 705 km, 98.2° (Epoch: 01 July)

Event Time Altitude Azimuth Distance (km) Brightness Sun altitude
Exits shadow 00:35:04 38° 152° (SSE) 1,054 4.4 -20.7°
Maximum altitude 00:36:51 76° 74° (ENE) 723 3.9 -20.6°
Drops below altitude 10° 00:41:37 10° 349° (N) 2,176 7.2 -20.4°
Sets 00:43:53 0° 348° (NNW) 3,102 8.2 -20.2°
